Погода в Павло-Антоновке

Россия / Оренбургская область     52°24′42″N   52°42′38″E
темп.,
°C
ветер,
м/с
пор.,
м/с
влажн.,
%
обл.,
%
осадки,
мм/ч
давл.,
гПа
погр.,
м
27 июля, вт
вт2723:00+16зсз335116 0.0 102144
02:00+15сз11525 0.0 102011
05:00+13з115412 0.0 102011
08:00+18з344657 0.0 1020194
11:00+24зсз46355 0.0 10192081
14:00+25зсз663159 0.0 10172575
17:00+25зсз46348 0.0 10161160
20:00+23зсз243882 0.0 1015257
28 июля, ср
ср2823:00+20з234599 0.0 101536
02:00+17зсз22595 0.0 101515
05:00+16сз227081 0.0 101530
08:00+19ссз45605 0.0 1015330
11:00+24ссз68385 0.0 10151961
14:00+26ссз67275 0.0 10142427
17:00+26ссз66235 0.0 10132570
20:00+24с47254 0.0 1014488
29 июля, чт
чт2923:00+17ссв22340 0.0 101411
02:00+15вюв11410 0.0 101511
05:00+13ююв114553 0.0 101510
08:00+17ююз123793 0.0 1015120
11:00+25зюз342886 0.0 10141156
14:00+28юз452279 0.0 10122440
17:00+29юз572377 0.0 10112921
20:00+22ссз3656100 0.1 1011189
30 июля, пт
пт3023:00+22ююв71456100 0.6 1007277
02:00+24зюз7143959 0.1 1007530
05:00+17зюз4108196 1.8 1007189
08:00+20з488069 0.2 1008290
11:00+26зсз6955100 0.2 10081099
14:00+29зсз693991 0.0 10081830
17:00+31зсз68331 0.0 10082466
20:00+28з3538100 0.0 1008178
31 июля, сб
сб3123:00+25з114799 0.0 100919
02:00+24с1148100 0.0 100916
05:00+22св115799 0.0 100911
08:00+24ююз1250100 0.0 1010142
11:00+27зюз454398 0.0 1011722
14:00+29юз653973 0.0 10101449
17:00+27юз564617 0.0 1011873
20:00+28ююз344346 0.0 1009624